铱星星座 167星 (IRIDIUM 167)

导读 | 豆包AI

IRIDIUM 167(铱星167)是美国铱星卫星系统的第二代通信卫星,于美国东部时间2019年1月11日8时发射升空,旨在替换系统中老化的初代卫星,延续全球卫星通信网络覆盖。它隶属于摩托罗拉主导的铱星星座项目,运行于近地轨道,为全球提供稳定的语音、数据通信服务,尤其支持偏远地区和海上的通信连接,是全球低轨卫星通信网络的重要组成部分,保障了铱星系统的持续服务能力。

基本信息
目录编号:
43931
目录名称:
IRIDIUM 167
国际标识:
2019-002K
轨道中心:
EARTH
卫星名称:
铱星星座 167星
卫星全名:
铱星星座 167星 (IRIDIUM 167)
卫星状态:
在轨 (已飞行2640 天)
发射日期:
2019-01-11 UTC
国别 :
美国 (US)
星等 :
--
轨道信息
数据来源 国际轨道数据
星历时间: 2026-04-04T02:45:43+0800
10小时前
查看轨道信息
半长轴: 7155.81km
偏心率: 0.0002434
轨道倾角: 86.401°
近地点辐角 92.521°
升交点赤经 24.679°
平近点角 267.626°
近地点: 775.931km
远地点: 779.415km
周期: 100.403分钟
每日圈数: 14.342162
详细信息
平衡模式:
三轴稳定
覆盖范围:
全球
运营商:
铱星通信公司
运营商所在国:
美国
制造商(研发单位):
阿莱尼亚宇航公司
制造商所在国:
意大利
使用方式:
暂无
卫星简介
铱星(Iridium)是由共66个运作中的通信卫星组成的卫星通信系统。这个系统原本规划77个通信卫星,所以用原子序数为77的铱元素来命名。铱卫星允许人们使用手持型电子设备进行全球性的语音及数据通讯。该卫星仍在工作。
2D轨道图
3D轨道图
轨道高度分析图
轨道倾角分析图
轨道综合分析图
查看轨道综合分析图